GW0143 Weather Reports


time (UTC)temp
C
wind
direction
speed
KPH
gust
KPH
rain 1hr
cm
rain 24hr
cm
rain mn
cm
humidity
%
barometer
mb
20260901070107 14 190 14.5 14.5 0.00 0.05 0.00 65 1028.8
20260901065107 14 187 14.5 14.5 0.00 0.05 0.00 61 1028.7
20260901064107 13 199 11.3 12.9 0.00 0.05 0.00 66 1028.7
20260901063107 14 197 12.9 14.5 0.00 0.05 0.00 64 1028.7
20260901062108 14 185 9.7 11.3 0.00 0.05 0.00 66 1028.7
20260901061148 14 180 14.5 16.1 0.00 0.05 0.00 64 1028.8
20260901060148 15 174 14.5 17.7 0.00 0.05 0.00 62 1028.8
20260901055108 14 162 12.9 14.5 0.00 0.05 0.05 67 1028.7
20260901054108 14 179 11.3 11.3 0.00 0.05 0.05 66 1028.8
20260901053109 13 188 11.3 17.7 0.00 0.05 0.05 68 1028.9
20260901052109 13 167 11.3 12.9 0.00 0.05 0.05 74 1028.9
20260901051109 13 179 8.0 9.7 0.00 0.05 0.05 77 1028.8
20260901050109 13 177 8.0 9.7 0.00 0.05 0.05 78 1029.0
20260901045109 13 205 9.7 11.3 0.00 0.05 0.05 78 1029.1
20260901044017 13 213 8.0 11.3 0.00 0.05 0.05 77 1029.1
20260901043018 13 175 11.3 14.5 0.00 0.05 0.05 74 1029.1
20260901042018 13 168 9.7 11.3 0.00 0.05 0.05 76 1029.0
20260901041018 13 152 8.0 9.7 0.00 0.05 0.05 75 1028.9
20260901040018 13 146 6.4 9.7 0.00 0.05 0.05 78 1029.0
20260901035018 14 149 8.0 9.7 0.00 0.05 0.05 77 1029.0
20260901034019 14 153 6.4 8.0 0.00 0.05 0.05 77 1028.9
20260901033030 14 178 8.0 12.9 0.00 0.05 0.05 75 1028.8
20260901032028 13 205 4.8 6.4 0.00 0.05 0.05 75 1029.0
20260901031028 13 190 4.8 8.0 0.00 0.05 0.05 81 1029.1
20260901030019 12 204 6.4 11.3 0.00 0.05 0.05 85 1029.2
20260901025028 13 190 6.4 8.0 0.00 0.05 0.05 83 1029.1
20260901024028 13 353 3.2 8.0 0.00 0.05 0.05 81 1028.7
20260901023020 14 36 6.4 11.3 0.00 0.05 0.05 78 1028.7
20260901022020 15 25 9.7 14.5 0.05 0.05 0.05 77 1028.9
20260901021029 15 114 1.6 3.2 0.05 0.05 0.05 72 1028.8
20260901020049 15 182 3.2 6.4 0.05 0.05 0.05 76 1028.6
20260901015020 15 187 6.4 9.7 0.05 0.05 0.05 73 1028.3
20260901014020 16 191 9.7 14.5 0.05 0.05 0.05 69 1028.3
20260901013021 16 199 6.4 12.9 0.05 0.05 0.05 72 1028.4
20260901012030 17 197 4.8 6.4 0.00 0.00 0.00 62 1028.3
20260901011030 17 189 4.8 6.4 0.00 0.00 0.00 61 1028.2
20260901010030 17 292 4.8 8.0 0.00 0.00 0.00 61 1028.2
20260901005022 17 250 6.4 9.7 0.00 0.00 0.00 62 1028.0
20260901004022 17 215 11.3 16.1 0.00 0.00 0.00 58 1027.7
20260901003039 18 193 14.5 17.7 0.00 0.00 0.00 55 1027.4
20260901002019 18 187 16.1 22.5 0.00 0.00 0.00 54 1027.3
20260901001059 18 187 17.7 24.1 0.00 0.00 0.00 52 1027.3
20260901000017 19 213 16.1 19.3 0.00 0.00 0.00 53 1027.3
20260831235020 20 189 17.7 24.1 0.00 0.00 0.00 48 1027.3
20260831234020 20 193 17.7 24.1 0.00 0.00 0.00 48 1027.2
20260831233021 20 189 17.7 24.1 0.00 0.00 0.00 47 1027.1
20260831232017 20 185 14.5 20.9 0.00 0.00 0.00 47 1027.1
20260831231018 21 185 12.9 19.3 0.00 0.00 0.00 45 1027.1
20260831230041 21 175 16.1 22.5 0.00 0.00 0.00 45 1027.2
20260831225038 21 173 12.9 22.5 0.00 0.00 0.00 44 1027.4
20260831224018 21 181 14.5 22.5 0.00 0.00 0.00 43 1027.6
20260831223019 21 178 17.7 29.0 0.00 0.00 0.00 44 1027.7
20260831222017 21 183 19.3 29.0 0.00 0.00 0.00 44 1027.8
20260831221019 21 173 19.3 29.0 0.00 0.00 0.00 42 1027.9
20260831220019 20 169 14.5 22.5 0.00 0.00 0.00 42 1028.1
20260831215019 21 184 19.3 27.4 0.00 0.00 0.00 46 1028.3
20260831214017 21 200 19.3 29.0 0.00 0.00 0.00 40 1028.4
20260831213017 21 249 11.3 20.9 0.00 0.00 0.00 35 1028.4
20260831212020 21 269 16.1 22.5 0.00 0.00 0.00 33 1028.3
20260831211040 21 271 6.4 12.9 0.00 0.00 0.00 38 1028.5
20260831210018 21 42 6.4 11.3 0.00 0.00 0.00 39 1028.3
20260831205019 21 358 6.4 12.9 0.00 0.00 0.00 38 1028.4
20260831204020 22 80 4.8 11.3 0.00 0.00 0.00 38 1028.3
20260831203019 22 154 3.2 6.4 0.00 0.00 0.00 38 1028.4
20260831202019 22 84 8.0 14.5 0.00 0.00 0.00 38 1028.6
20260831201019 22 178 4.8 11.3 0.00 0.00 0.00 39 1028.8
20260831200019 22 5 6.4 11.3 0.00 0.00 0.00 39 1028.9
20260831195019 21 134 3.2 9.7 0.00 0.00 0.00 42 1029.2
20260831194101 20 6 4.8 12.9 0.00 0.00 0.00 43 1029.4
20260831193020 20 39 8.0 12.9 0.00 0.00 0.00 44 1029.4
20260831192020 20 52 8.0 12.9 0.00 0.00 0.00 46 1029.6
20260831191021 19 91 3.2 4.8 0.00 0.00 0.00 46 1029.8
20260831190020 18 0 3.2 4.8 0.00 0.00 0.00 46 1029.8
20260831185021 18 347 3.2 8.0 0.00 0.00 0.00 49 1030.1
20260831184021 18 345 8.0 9.7 0.00 0.00 0.00 52 1030.1
20260831183021 18 317 4.8 8.0 0.00 0.00 0.00 56 1030.3
20260831182022 18 234 4.8 9.7 0.00 0.00 0.00 51 1030.4
20260831181022 17 248 9.7 12.9 0.00 0.00 0.00 54 1030.5
20260831180022 15 348 3.2 4.8 0.00 0.00 0.00 68 1030.9
20260831175022 16 332 4.8 6.4 0.00 0.00 0.00 71 1031.1
20260831174022 16 259 4.8 4.8 0.00 0.00 0.00 67 1030.9
20260831172106 17 275 4.8 8.0 0.00 0.00 0.00 61 1030.7
20260831171106 18 316 1.6 3.2 0.00 0.00 0.00 48 1030.3
20260831170106 18 224 8.0 9.7 0.00 0.00 0.00 49 1030.7
20260831165106 17 180 8.0 11.3 0.00 0.00 0.00 52 1030.6
20260831164127 17 170 8.0 11.3 0.00 0.00 0.00 52 1030.7
20260831163107 17 185 11.3 12.9 0.00 0.00 0.00 51 1030.7
20260831162107 17 185 3.2 3.2 0.00 0.00 0.00 58 1030.6
20260831161128 -17 186 4.8 4.8 0.00 0.00 0.00 1030.5